WAT2592 EVRA-EYVI

Flight info

Callsign WAT2592
Flight time 0h 30m
Altitude 23000
Route ERIVA DCT PIFBO
Aircraft MD11/H-SDE1E2E3FGHIJ2J3J4J5M1RWXY/LB1D1

Departure

Time 2026-05-04 17:17
Airport Riga International Airport (EVRA)

Arrival

Time 2026-05-04 17:48
Airport Vilnius International Airport (EYVI)
Time Latitude Longitude Altitude Speed Heading
2026-05-04 16:46 56.92197 23.97588 42 ft 0 kts
2026-05-04 17:04 56.92194 23.97587 14 ft 0 kts
2026-05-04 17:07 56.92176 23.97584 41 ft 4 kts
2026-05-04 17:07 56.92154 23.97588 39 ft 4 kts 324°
2026-05-04 17:08 56.92139 23.97619 38 ft 4 kts 289°
2026-05-04 17:08 56.92133 23.97661 42 ft 0 kts 275°
2026-05-04 17:13 56.92135 23.97615 42 ft 4 kts 275°
2026-05-04 17:14 56.92222 23.97479 42 ft 11 kts
2026-05-04 17:14 56.92298 23.97490 42 ft 15 kts
2026-05-04 17:14 56.92589 23.97550 42 ft 24 kts
2026-05-04 17:15 56.92764 23.97580 41 ft 26 kts
2026-05-04 17:15 56.93117 23.97636 42 ft 21 kts 359°
2026-05-04 17:16 56.93363 23.97584 42 ft 16 kts
2026-05-04 17:16 56.93434 23.97294 44 ft 8 kts 191°
2026-05-04 17:17 56.93367 23.97285 44 ft 17 kts 185°
2026-05-04 17:17 56.90999 23.96963 652 ft 170 kts 185°
2026-05-04 17:18 56.89819 23.96848 1476 ft 171 kts 186°
2026-05-04 17:18 56.87401 23.96528 2890 ft 177 kts 191°
2026-05-04 17:19 56.84779 23.97480 3674 ft 233 kts 148°
2026-05-04 17:19 56.82493 24.02700 4291 ft 290 kts 127°
2026-05-04 17:20 56.80380 24.09156 5934 ft 306 kts 114°
2026-05-04 17:20 56.79708 24.16839 7790 ft 311 kts 97°
2026-05-04 17:20 56.79535 24.20820 8515 ft 319 kts 96°
2026-05-04 17:21 56.79228 24.29007 10041 ft 327 kts 97°
2026-05-04 17:21 56.78189 24.37239 10798 ft 349 kts 125°
2026-05-04 17:22 56.76857 24.41079 10960 ft 369 kts 128°
2026-05-04 17:22 56.75358 24.45062 11273 ft 388 kts 129°
2026-05-04 17:23 56.70795 24.57593 13688 ft 403 kts 127°
2026-05-04 17:23 56.69226 24.61838 14329 ft 404 kts 132°
2026-05-04 17:23 56.64885 24.67741 15645 ft 385 kts 170°
2026-05-04 17:24 56.62281 24.68316 16291 ft 373 kts 189°
2026-05-04 17:24 56.54793 24.65002 18142 ft 375 kts 202°
2026-05-04 17:25 56.52277 24.63676 18690 ft 378 kts 201°
2026-05-04 17:25 56.47002 24.62196 19759 ft 394 kts 187°
2026-05-04 17:26 56.41463 24.62606 20813 ft 403 kts 184°
2026-05-04 17:26 56.32979 24.64110 22173 ft 415 kts 179°
2026-05-04 17:27 56.27239 24.65756 22796 ft 420 kts 179°
2026-05-04 17:27 56.21370 24.67424 22847 ft 430 kts 179°
2026-05-04 17:28 56.15448 24.69077 22821 ft 430 kts 179°
2026-05-04 17:29 56.06568 24.71508 22849 ft 429 kts 179°
2026-05-04 17:29 55.97738 24.73908 22850 ft 426 kts 179°
2026-05-04 17:30 55.88994 24.76269 22843 ft 425 kts 179°
2026-05-04 17:31 55.83147 24.77842 22868 ft 425 kts 179°
2026-05-04 17:31 55.74383 24.80192 22858 ft 425 kts 179°
2026-05-04 17:32 55.68535 24.81755 22868 ft 425 kts 179°
2026-05-04 17:33 55.59748 24.84090 22864 ft 427 kts 178°
2026-05-04 17:33 55.56805 24.84872 22864 ft 428 kts 178°
2026-05-04 17:34 55.48117 24.87169 21957 ft 412 kts 178°
2026-05-04 17:34 55.45291 24.87910 21306 ft 408 kts 178°
2026-05-04 17:35 55.37010 24.90085 20428 ft 385 kts 178°
2026-05-04 17:35 55.31960 24.91429 20175 ft 351 kts 178°
2026-05-04 17:35 55.29585 24.92049 19855 ft 339 kts 179°
2026-05-04 17:36 55.27274 24.92324 19339 ft 331 kts 187°
2026-05-04 17:36 55.24966 24.92209 18723 ft 331 kts 189°
2026-05-04 17:36 55.22666 24.91966 18105 ft 332 kts 190°
2026-05-04 17:36 55.20356 24.91695 17440 ft 333 kts 190°
2026-05-04 17:37 55.18047 24.91430 16811 ft 332 kts 190°
2026-05-04 17:37 55.15743 24.91175 16199 ft 332 kts 189°
2026-05-04 17:37 55.13447 24.90928 15585 ft 328 kts 189°
2026-05-04 17:37 55.11201 24.90697 15010 ft 319 kts 189°
2026-05-04 17:38 55.09018 24.90475 14458 ft 310 kts 189°
2026-05-04 17:38 55.06893 24.90259 13906 ft 302 kts 189°
2026-05-04 17:38 55.04789 24.90040 13357 ft 302 kts 189°
2026-05-04 17:38 55.02705 24.89822 12796 ft 299 kts 189°
2026-05-04 17:39 54.98618 24.89401 11749 ft 294 kts 189°
2026-05-04 17:39 54.96587 24.89193 11231 ft 291 kts 189°
2026-05-04 17:39 54.94571 24.88986 10726 ft 289 kts 189°
2026-05-04 17:40 54.92554 24.89080 10223 ft 294 kts 175°
2026-05-04 17:40 54.90642 24.90383 9790 ft 301 kts 150°
2026-05-04 17:40 54.89234 24.93114 9215 ft 311 kts 120°
2026-05-04 17:40 54.88496 24.96656 8686 ft 313 kts 106°
2026-05-04 17:41 54.88016 25.00335 8155 ft 314 kts 103°
2026-05-04 17:41 54.87579 25.04050 7626 ft 314 kts 103°
2026-05-04 17:41 54.87134 25.07744 7135 ft 311 kts 104°
2026-05-04 17:41 54.86677 25.11367 6653 ft 304 kts 105°
2026-05-04 17:42 54.86212 25.14920 6220 ft 300 kts 105°
2026-05-04 17:42 54.85743 25.18422 5832 ft 297 kts 105°
2026-05-04 17:42 54.85273 25.21880 5558 ft 292 kts 105°
2026-05-04 17:42 54.84730 25.25180 5351 ft 277 kts 112°
2026-05-04 17:43 54.84068 25.28296 4946 ft 274 kts 114°
2026-05-04 17:43 54.83387 25.31301 4555 ft 259 kts 115°
2026-05-04 17:43 54.82751 25.34073 4385 ft 238 kts 115°
2026-05-04 17:43 54.82083 25.36668 4221 ft 234 kts 126°
2026-05-04 17:44 54.81018 25.38637 3852 ft 216 kts 156°
2026-05-04 17:44 54.79667 25.39298 3505 ft 196 kts 190°
2026-05-04 17:44 54.78368 25.38781 3272 ft 192 kts 203°
2026-05-04 17:44 54.77113 25.38128 2937 ft 182 kts 203°
2026-05-04 17:45 54.75987 25.37396 2720 ft 166 kts 207°
2026-05-04 17:45 54.74904 25.36653 2698 ft 170 kts 207°
2026-05-04 17:45 54.73807 25.35895 2595 ft 171 kts 207°
2026-05-04 17:45 54.72727 25.35099 2376 ft 166 kts 209°
2026-05-04 17:46 54.71668 25.34317 2179 ft 168 kts 206°
2026-05-04 17:46 54.70941 25.33823 2070 ft 171 kts 206°
2026-05-04 17:46 54.69826 25.33063 1850 ft 172 kts 206°
2026-05-04 17:46 54.68722 25.32263 1618 ft 172 kts 206°
2026-05-04 17:47 54.67256 25.31231 1272 ft 171 kts 205°
2026-05-04 17:47 54.66160 25.30484 1038 ft 168 kts 205°
2026-05-04 17:47 54.65094 25.29736 822 ft 165 kts 204°
2026-05-04 17:47 54.64023 25.29003 669 ft 157 kts 204°
2026-05-04 17:48 54.63410 25.28574 628 ft 120 kts 202°
2026-05-04 17:48 54.62827 25.28168 618 ft 66 kts 201°
2026-05-04 17:48 54.62494 25.27939 620 ft 28 kts 202°
2026-05-04 17:48 54.62426 25.27825 626 ft 10 kts 274°
2026-05-04 17:49 54.62467 25.27727 625 ft 12 kts 316°
2026-05-04 17:49 54.62546 25.27669 613 ft 12 kts
2026-05-04 17:49 54.62623 25.27715 609 ft 11 kts 21°
2026-05-04 17:49 54.62713 25.27777 615 ft 17 kts 22°
2026-05-04 17:50 54.62816 25.27849 618 ft 16 kts 22°
2026-05-04 17:50 54.62926 25.27924 622 ft 17 kts 21°
2026-05-04 17:50 54.63042 25.28003 622 ft 19 kts 21°
2026-05-04 17:50 54.63165 25.28089 624 ft 18 kts 22°
2026-05-04 17:51 54.63273 25.28164 626 ft 15 kts 22°
2026-05-04 17:51 54.63363 25.28226 624 ft 13 kts 22°
2026-05-04 17:51 54.63437 25.28278 623 ft 10 kts 22°
2026-05-04 17:51 54.63507 25.28326 626 ft 12 kts 22°
2026-05-04 17:52 54.63587 25.28363 632 ft 12 kts
2026-05-04 17:52 54.63666 25.28342 632 ft 12 kts 347°
2026-05-04 17:52 54.63745 25.28311 638 ft 12 kts 347°
2026-05-04 17:52 54.63819 25.28282 640 ft 8 kts 347°
2026-05-04 17:53 54.63891 25.28254 640 ft 12 kts 347°
2026-05-04 17:53 54.63943 25.28233 647 ft 4 kts 347°
2026-05-04 17:53 54.63962 25.28229 642 ft 3 kts 358°
2026-05-04 17:53 54.63972 25.28241 647 ft 1 kts 41°
2026-05-04 17:54 54.63976 25.28262 651 ft 3 kts 68°
2026-05-04 17:54 54.63983 25.28291 643 ft 1 kts 70°
2026-05-04 17:54 54.63984 25.28299 643 ft 1 kts 72°
2026-05-04 17:54 54.63986 25.28309 643 ft 0 kts 72°